| time (UTC) | temp F | wind direction | speed MPH | gust MPH | rain 1hr in | rain 24hr in | rain mn in | humidity % | barometer mb |
| 20260504151008 | 43 | 234 | 0.0 | 2.0 | 0.03 | 0.27 | 0.27 | 92 | 1015.6 |
| 20260504150508 | 43 | 234 | 0.0 | 2.0 | 0.03 | 0.27 | 0.27 | 92 | 1015.5 |
| 20260504141058 | 43 | 228 | 2.0 | 4.0 | 0.08 | 0.24 | 0.24 | 92 | 1015.0 |
| 20260504140558 | 43 | 228 | 2.0 | 4.0 | 0.09 | 0.24 | 0.24 | 92 | 1015.1 |
| 20260504130552 | 44 | 193 | 1.0 | 4.0 | 0.07 | 0.15 | 0.15 | 91 | 1014.7 |
| 20260504110533 | 44 | 240 | 3.0 | 6.0 | 0.00 | 0.00 | 0.00 | 90 | 1013.7 |
| 20260504100524 | 45 | 242 | 1.0 | 7.0 | 0.00 | 0.00 | 0.00 | 91 | 1013.7 |
| 20260504081514 | 46 | 280 | 1.0 | 5.0 | 0.00 | 0.00 | 0.00 | 89 | 1013.7 |
| 20260504081020 | 46 | 232 | 2.0 | 5.0 | 0.00 | 0.00 | 0.00 | 89 | 1013.5 |
| 20260504080512 | 47 | 243 | 2.0 | 5.0 | 0.00 | 0.00 | 0.00 | 88 | 1013.5 |
| 20260504050553 | 51 | 246 | 0.0 | 0.0 | 0.00 | 0.00 | 0.00 | 85 | 1013.4 |
| 20260504045552 | 51 | 246 | 0.0 | 0.0 | 0.00 | 0.00 | 0.00 | 85 | 1013.4 |
| 20260504045052 | 51 | 246 | 0.0 | 0.0 | 0.00 | 0.00 | 0.00 | 85 | 1013.3 |
| 20260504044551 | 51 | 246 | 0.0 | 0.0 | 0.00 | 0.00 | 0.00 | 85 | 1013.2 |
| 20260504044050 | 51 | 246 | 0.0 | 1.0 | 0.00 | 0.00 | 0.00 | 85 | 1013.2 |
| 20260504043550 | 51 | 246 | 0.0 | 2.0 | 0.00 | 0.00 | 0.00 | 84 | 1013.2 |
| 20260504043051 | 51 | 247 | 0.0 | 2.0 | 0.00 | 0.00 | 0.00 | 84 | 1013.1 |
| 20260504042550 | 51 | 247 | 0.0 | 2.0 | 0.00 | 0.00 | 0.00 | 84 | 1013.1 |
| 20260504042047 | 51 | 247 | 0.0 | 3.0 | 0.00 | 0.00 | 0.00 | 84 | 1013.0 |
| 20260504041547 | 51 | 244 | 0.0 | 3.0 | 0.00 | 0.00 | 0.00 | 83 | 1012.9 |
| 20260504041046 | 52 | 247 | 0.0 | 2.0 | 0.00 | 0.00 | 0.00 | 83 | 1012.8 |
| 20260504040548 | 52 | 267 | 0.0 | 2.0 | 0.00 | 0.00 | 0.00 | 83 | 1012.9 |
| 20260504040103 | 52 | 266 | 0.0 | 2.0 | 0.00 | 0.00 | 0.00 | 83 | 1012.7 |
| 20260504035547 | 52 | 290 | 0.0 | 2.0 | 0.00 | 0.00 | 0.00 | 83 | 1012.8 |
| 20260504035045 | 52 | 277 | 1.0 | 3.0 | 0.00 | 0.00 | 0.00 | 82 | 1012.8 |
| 20260504034545 | 52 | 279 | 1.0 | 4.0 | 0.00 | 0.00 | 0.00 | 82 | 1012.7 |
| 20260504034043 | 52 | 269 | 1.0 | 4.0 | 0.00 | 0.00 | 0.00 | 82 | 1012.7 |
| 20260504033542 | 52 | 245 | 1.0 | 4.0 | 0.00 | 0.00 | 0.00 | 82 | 1012.6 |
| 20260504033041 | 52 | 248 | 2.0 | 5.0 | 0.00 | 0.00 | 0.00 | 81 | 1012.5 |
| 20260504032541 | 53 | 254 | 2.0 | 6.0 | 0.00 | 0.00 | 0.00 | 81 | 1012.4 |
| 20260504032039 | 53 | 241 | 1.0 | 9.0 | 0.00 | 0.00 | 0.00 | 81 | 1012.4 |
| 20260504031539 | 53 | 229 | 2.0 | 9.0 | 0.00 | 0.00 | 0.00 | 81 | 1012.4 |
| 20260504031038 | 53 | 250 | 2.0 | 9.0 | 0.00 | 0.00 | 0.00 | 80 | 1012.3 |
| 20260504030537 | 53 | 279 | 2.0 | 9.0 | 0.00 | 0.00 | 0.00 | 80 | 1012.3 |
| 20260504030036 | 54 | 261 | 2.0 | 7.0 | 0.00 | 0.00 | 0.00 | 79 | 1012.3 |
| 20260504025536 | 54 | 271 | 2.0 | 7.0 | 0.00 | 0.00 | 0.00 | 79 | 1012.2 |
| 20260504025036 | 54 | 293 | 1.0 | 7.0 | 0.00 | 0.00 | 0.00 | 78 | 1011.9 |
| 20260504024533 | 55 | 298 | 3.0 | 6.0 | 0.00 | 0.00 | 0.00 | 78 | 1011.7 |
| 20260504024033 | 55 | 284 | 2.0 | 9.0 | 0.00 | 0.00 | 0.00 | 78 | 1011.7 |
| 20260504023531 | 55 | 285 | 2.0 | 9.0 | 0.00 | 0.00 | 0.00 | 78 | 1011.6 |
| 20260504023031 | 55 | 294 | 2.0 | 9.0 | 0.00 | 0.00 | 0.00 | 77 | 1011.6 |
| 20260504022533 | 55 | 281 | 3.0 | 11.0 | 0.00 | 0.00 | 0.00 | 77 | 1011.6 |
| 20260504022028 | 55 | 283 | 4.0 | 10.0 | 0.00 | 0.00 | 0.00 | 77 | 1011.5 |
| 20260504021528 | 56 | 254 | 3.0 | 11.0 | 0.00 | 0.00 | 0.00 | 76 | 1011.4 |
| 20260504021026 | 56 | 292 | 4.0 | 11.0 | 0.00 | 0.00 | 0.00 | 75 | 1011.3 |
| 20260504020526 | 56 | 263 | 4.0 | 9.0 | 0.00 | 0.00 | 0.00 | 75 | 1011.3 |
| 20260504020026 | 57 | 261 | 3.0 | 12.0 | 0.00 | 0.00 | 0.00 | 74 | 1011.4 |
| 20260504015526 | 57 | 283 | 4.0 | 9.0 | 0.00 | 0.00 | 0.00 | 74 | 1011.5 |
| 20260504015026 | 57 | 259 | 2.0 | 10.0 | 0.00 | 0.00 | 0.00 | 74 | 1011.4 |
| 20260504014527 | 58 | 268 | 3.0 | 10.0 | 0.00 | 0.00 | 0.00 | 73 | 1011.4 |
| 20260504014025 | 58 | 252 | 3.0 | 10.0 | 0.00 | 0.00 | 0.00 | 72 | 1011.3 |
| 20260504013525 | 58 | 282 | 3.0 | 10.0 | 0.00 | 0.00 | 0.00 | 71 | 1011.2 |
| 20260504013025 | 59 | 290 | 3.0 | 9.0 | 0.00 | 0.00 | 0.00 | 71 | 1011.2 |
| 20260504012527 | 59 | 272 | 4.0 | 9.0 | 0.00 | 0.00 | 0.00 | 70 | 1011.3 |
| 20260504012025 | 59 | 286 | 3.0 | 9.0 | 0.00 | 0.00 | 0.00 | 69 | 1011.3 |
| 20260504011524 | 60 | 271 | 3.0 | 11.0 | 0.00 | 0.00 | 0.00 | 69 | 1011.4 |
| 20260504011024 | 60 | 288 | 3.0 | 9.0 | 0.00 | 0.00 | 0.00 | 68 | 1011.3 |
| 20260504010523 | 61 | 277 | 4.0 | 10.0 | 0.00 | 0.00 | 0.00 | 67 | 1011.2 |
| 20260504010024 | 61 | 288 | 2.0 | 8.0 | 0.00 | 0.00 | 0.00 | 69 | 1011.3 |
| 20260504005524 | 61 | 284 | 4.0 | 11.0 | 0.00 | 0.00 | 0.00 | 67 | 1011.2 |
| 20260504005025 | 62 | 236 | 4.0 | 9.0 | 0.00 | 0.00 | 0.00 | 67 | 1011.2 |
| 20260504004537 | 61 | 259 | 3.0 | 8.0 | 0.00 | 0.00 | 0.00 | 67 | 1011.1 |
| 20260504004023 | 62 | 281 | 4.0 | 8.0 | 0.00 | 0.00 | 0.00 | 66 | 1011.1 |
| 20260504003527 | 62 | 279 | 3.0 | 8.0 | 0.00 | 0.00 | 0.00 | 66 | 1011.1 |
| 20260504003023 | 62 | 228 | 3.0 | 9.0 | 0.00 | 0.00 | 0.00 | 64 | 1011.0 |
| 20260504002522 | 62 | 296 | 3.0 | 10.0 | 0.00 | 0.00 | 0.00 | 66 | 1010.9 |
| 20260504002023 | 62 | 283 | 4.0 | 10.0 | 0.00 | 0.00 | 0.00 | 64 | 1010.9 |
| 20260504001522 | 62 | 288 | 2.0 | 10.0 | 0.00 | 0.00 | 0.00 | 66 | 1010.9 |
| 20260504001022 | 62 | 288 | 3.0 | 9.0 | 0.00 | 0.00 | 0.00 | 64 | 1011.0 |
| 20260504000521 | 63 | 304 | 3.0 | 10.0 | 0.00 | 0.00 | 0.00 | 63 | 1011.0 |
| 20260504000021 | 63 | 286 | 3.0 | 10.0 | 0.00 | 0.00 | 0.00 | 63 | 1011.0 |
| 20260503235521 | 63 | 292 | 3.0 | 9.0 | 0.00 | 0.00 | 0.00 | 63 | 1010.8 |
| 20260503235024 | 63 | 296 | 3.0 | 9.0 | 0.00 | 0.00 | 0.00 | 65 | 1010.8 |
| 20260503234522 | 63 | 248 | 3.0 | 10.0 | 0.00 | 0.00 | 0.00 | 64 | 1010.8 |
| 20260503234021 | 63 | 240 | 4.0 | 10.0 | 0.00 | 0.00 | 0.00 | 64 | 1010.7 |
| 20260503233520 | 63 | 286 | 2.0 | 12.0 | 0.00 | 0.00 | 0.00 | 66 | 1010.8 |
| 20260503233022 | 63 | 259 | 3.0 | 12.0 | 0.00 | 0.00 | 0.00 | 64 | 1010.9 |
| 20260503232520 | 63 | 285 | 3.0 | 10.0 | 0.00 | 0.00 | 0.00 | 65 | 1010.9 |
| 20260503232021 | 62 | 261 | 2.0 | 8.0 | 0.00 | 0.00 | 0.00 | 66 | 1010.8 |
| 20260503231520 | 62 | 286 | 1.0 | 8.0 | 0.00 | 0.00 | 0.00 | 65 | 1010.9 |
| 20260503231020 | 62 | 281 | 2.0 | 8.0 | 0.00 | 0.00 | 0.00 | 67 | 1010.9 |
| 20260503230520 | 62 | 244 | 2.0 | 9.0 | 0.00 | 0.00 | 0.00 | 66 | 1010.9 |
| 20260503230020 | 62 | 244 | 3.0 | 9.0 | 0.00 | 0.00 | 0.00 | 65 | 1011.0 |
| 20260503225518 | 63 | 279 | 2.0 | 7.0 | 0.00 | 0.00 | 0.00 | 64 | 1011.1 |
| 20260503225018 | 63 | 284 | 2.0 | 8.0 | 0.00 | 0.00 | 0.00 | 65 | 1011.2 |
| 20260503224519 | 63 | 289 | 2.0 | 10.0 | 0.00 | 0.00 | 0.00 | 67 | 1011.1 |
| 20260503224018 | 63 | 242 | 2.0 | 10.0 | 0.00 | 0.00 | 0.00 | 67 | 1011.2 |
| 20260503223518 | 63 | 288 | 3.0 | 9.0 | 0.00 | 0.00 | 0.00 | 65 | 1011.2 |
| 20260503223017 | 63 | 227 | 2.0 | 11.0 | 0.00 | 0.00 | 0.00 | 65 | 1011.2 |
| 20260503222517 | 62 | 282 | 6.0 | 11.0 | 0.00 | 0.00 | 0.00 | 67 | 1011.2 |
| 20260503222017 | 62 | 290 | 3.0 | 10.0 | 0.00 | 0.00 | 0.00 | 68 | 1011.3 |
| 20260503221517 | 62 | 243 | 3.0 | 10.0 | 0.00 | 0.00 | 0.00 | 67 | 1011.4 |
| 20260503221017 | 62 | 296 | 2.0 | 8.0 | 0.00 | 0.00 | 0.00 | 70 | 1011.4 |
| 20260503220521 | 63 | 288 | 4.0 | 12.0 | 0.00 | 0.00 | 0.00 | 66 | 1011.4 |
| 20260503220017 | 63 | 276 | 5.0 | 12.0 | 0.00 | 0.00 | 0.00 | 67 | 1011.4 |
| 20260503215516 | 62 | 272 | 3.0 | 10.0 | 0.00 | 0.00 | 0.00 | 68 | 1011.4 |
| 20260503215016 | 62 | 240 | 2.0 | 10.0 | 0.00 | 0.00 | 0.00 | 70 | 1011.3 |
| 20260503214516 | 61 | 268 | 3.0 | 11.0 | 0.00 | 0.00 | 0.00 | 68 | 1011.4 |
| 20260503214017 | 62 | 284 | 5.0 | 12.0 | 0.00 | 0.00 | 0.00 | 68 | 1011.3 |
| 20260503213516 | 62 | 308 | 4.0 | 12.0 | 0.00 | 0.00 | 0.00 | 67 | 1011.3 |
| 20260503213018 | 63 | 290 | 5.0 | 13.0 | 0.00 | 0.00 | 0.00 | 65 | 1011.2 |
| 20260503212516 | 64 | 284 | 6.0 | 13.0 | 0.00 | 0.00 | 0.00 | 65 | 1011.1 |
| 20260503212014 | 65 | 306 | 4.0 | 11.0 | 0.00 | 0.00 | 0.00 | 64 | 1011.1 |
| 20260503211514 | 64 | 275 | 2.0 | 11.0 | 0.00 | 0.00 | 0.00 | 67 | 1011.1 |
| 20260503211020 | 64 | 288 | 5.0 | 11.0 | 0.00 | 0.00 | 0.00 | 66 | 1011.1 |
| 20260503210513 | 64 | 295 | 5.0 | 12.0 | 0.00 | 0.00 | 0.00 | 65 | 1011.1 |
| 20260503210115 | 64 | 224 | 4.0 | 12.0 | 0.00 | 0.00 | 0.00 | 67 | 1011.1 |
| 20260503205514 | 64 | 282 | 2.0 | 11.0 | 0.00 | 0.00 | 0.00 | 68 | 1011.1 |
| 20260503205013 | 64 | 292 | 2.0 | 11.0 | 0.00 | 0.00 | 0.00 | 71 | 1011.1 |
| 20260503204519 | 63 | 308 | 2.0 | 9.0 | 0.00 | 0.00 | 0.00 | 69 | 1011.2 |
| 20260503204016 | 63 | 296 | 4.0 | 12.0 | 0.00 | 0.00 | 0.00 | 68 | 1011.1 |
| 20260503203513 | 63 | 290 | 6.0 | 11.0 | 0.00 | 0.00 | 0.00 | 68 | 1011.0 |
| 20260503203014 | 64 | 265 | 3.0 | 9.0 | 0.00 | 0.00 | 0.00 | 66 | 1011.1 |
| 20260503202510 | 64 | 291 | 2.0 | 11.0 | 0.00 | 0.00 | 0.00 | 71 | 1011.1 |
| 20260503202010 | 64 | 289 | 4.0 | 11.0 | 0.00 | 0.00 | 0.00 | 67 | 1011.1 |
| 20260503201509 | 64 | 280 | 4.0 | 9.0 | 0.00 | 0.00 | 0.00 | 69 | 1011.0 |
| 20260503201007 | 63 | 248 | 3.0 | 10.0 | 0.00 | 0.00 | 0.00 | 73 | 1011.0 |
| 20260503200507 | 62 | 270 | 4.0 | 10.0 | 0.00 | 0.00 | 0.00 | 71 | 1011.1 |
| 20260503200009 | 62 | 290 | 4.0 | 10.0 | 0.00 | 0.00 | 0.00 | 70 | 1011.2 |
| 20260503195506 | 62 | 325 | 3.0 | 11.0 | 0.00 | 0.00 | 0.00 | 71 | 1011.2 |
| 20260503195006 | 62 | 289 | 5.0 | 11.0 | 0.00 | 0.00 | 0.00 | 71 | 1011.2 |
| 20260503194506 | 62 | 274 | 3.0 | 10.0 | 0.00 | 0.00 | 0.00 | 72 | 1011.2 |
| 20260503194006 | 62 | 292 | 2.0 | 8.0 | 0.00 | 0.00 | 0.00 | 73 | 1011.2 |
| 20260503193504 | 61 | 273 | 3.0 | 9.0 | 0.00 | 0.00 | 0.00 | 73 | 1011.1 |
| 20260503193006 | 61 | 296 | 2.0 | 8.0 | 0.00 | 0.00 | 0.00 | 72 | 1011.2 |
| 20260503192502 | 61 | 297 | 3.0 | 8.0 | 0.00 | 0.00 | 0.00 | 74 | 1011.2 |
| 20260503192003 | 61 | 292 | 2.0 | 11.0 | 0.00 | 0.00 | 0.00 | 75 | 1011.1 |
| 20260503191501 | 61 | 265 | 6.0 | 11.0 | 0.00 | 0.00 | 0.00 | 73 | 1011.2 |
| 20260503191101 | 61 | 236 | 4.0 | 11.0 | 0.00 | 0.00 | 0.00 | 74 | 1011.1 |
| 20260503190600 | 60 | 290 | 3.0 | 12.0 | 0.00 | 0.00 | 0.00 | 75 | 1011.3 |
| 20260503190105 | 60 | 276 | 5.0 | 12.0 | 0.00 | 0.00 | 0.00 | 74 | 1011.1 |
| 20260503185559 | 60 | 290 | 3.0 | 11.0 | 0.00 | 0.00 | 0.00 | 76 | 1011.2 |
| 20260503185102 | 59 | 287 | 6.0 | 11.0 | 0.00 | 0.00 | 0.00 | 76 | 1011.3 |
| 20260503184559 | 59 | 261 | 2.0 | 11.0 | 0.00 | 0.00 | 0.00 | 77 | 1011.3 |
| 20260503184058 | 59 | 286 | 4.0 | 11.0 | 0.00 | 0.00 | 0.00 | 76 | 1011.3 |
| 20260503183559 | 59 | 286 | 2.0 | 9.0 | 0.00 | 0.00 | 0.00 | 75 | 1011.3 |
| 20260503183116 | 60 | 289 | 2.0 | 9.0 | 0.00 | 0.00 | 0.00 | 76 | 1011.3 |
| 20260503182557 | 60 | 286 | 4.0 | 10.0 | 0.00 | 0.00 | 0.00 | 76 | 1011.3 |
| 20260503182057 | 59 | 271 | 3.0 | 7.0 | 0.00 | 0.00 | 0.00 | 77 | 1011.3 |
| 20260503181619 | 59 | 282 | 2.0 | 10.0 | 0.00 | 0.00 | 0.00 | 78 | 1011.3 |
| 20260503181056 | 59 | 227 | 3.0 | 10.0 | 0.00 | 0.00 | 0.00 | 75 | 1011.3 |
| 20260503180556 | 60 | 288 | 3.0 | 8.0 | 0.00 | 0.00 | 0.00 | 73 | 1011.2 |
| 20260503180059 | 61 | 288 | 3.0 | 9.0 | 0.00 | 0.00 | 0.00 | 74 | 1011.2 |
| 20260503175554 | 61 | 284 | 2.0 | 7.0 | 0.00 | 0.00 | 0.00 | 75 | 1011.1 |
| 20260503175053 | 61 | 295 | 1.0 | 5.0 | 0.00 | 0.00 | 0.00 | 74 | 1011.1 |
| 20260503174553 | 61 | 289 | 2.0 | 5.0 | 0.00 | 0.00 | 0.00 | 73 | 1011.1 |
| 20260503174052 | 61 | 307 | 0.0 | 4.0 | 0.00 | 0.00 | 0.00 | 74 | 1011.0 |
| 20260503173553 | 61 | 303 | 1.0 | 3.0 | 0.00 | 0.00 | 0.00 | 75 | 1011.0 |
| 20260503173056 | 60 | 290 | 0.0 | 3.0 | 0.00 | 0.00 | 0.00 | 75 | 1011.0 |
| 20260503172553 | 59 | 218 | 1.0 | 4.0 | 0.00 | 0.00 | 0.00 | 74 | 1011.0 |
| 20260503172048 | 59 | 282 | 0.0 | 4.0 | 0.00 | 0.00 | 0.00 | 75 | 1010.9 |
| 20260503171550 | 59 | 317 | 1.0 | 3.0 | 0.00 | 0.00 | 0.00 | 77 | 1010.9 |
| 20260503171051 | 59 | 318 | 0.0 | 3.0 | 0.00 | 0.00 | 0.00 | 76 | 1010.9 |
| 20260503170548 | 59 | 319 | 0.0 | 4.0 | 0.00 | 0.00 | 0.00 | 78 | 1010.9 |